Weather History for KIPL - August, 2013

Change the Weather History Date:

Thursday, August 8, 2013

  Actual Average Record
Temperature  
Mean Temperature 94 °F -  
Max Temperature 109 °F 106 °F 115 °F (2012)
Min Temperature 79 °F 79 °F 66 °F (1951)
Cooling Degree Days 28    
Growing Degree Days 44 (Base 50)    
Moisture  
Dew Point 35 °F    
Average Humidity 16    
Maximum Humidity 28    
Minimum Humidity 5    
Precipitation  
Precipitation 0.00 in - - ()
Sea Level Pressure  
Sea Level Pressure 29.77 in    
Wind  
Wind Speed 7 mph (West)    
Max Wind Speed 17 mph    
Max Gust Speed 23 mph    
Visibility 10 miles    
Events      
Averages and records for this station are not official NWS values.
T = Trace of Precipitation, MM = Missing Value Source: NWS Daily Summary

Daily Weather History Graph

Daily Weather History Graph

Search for Another Location

Airport or City:

Trip Planner

Search our weather history database for the weather conditions in past years. The results will help you decide how hot, cold, wet, or windy it might be!

Date:

Astronomy

Aug. 08, 2013 Rise Set
Actual Time 6:01 AM PDT 7:34 PM PDT
Civil Twilight 5:34 AM PDT 8:00 PM PDT
Nautical Twilight 5:02 AM PDT 8:32 PM PDT
Astronomical Twilight 4:29 AM PDT 9:05 PM PDT
Moon 7:42 AM PDT (8/8) 8:26 PM PDT (8/8)
Length of Visible Light 14h 26m
Length of Day
13h 33m
Waxing Crescent, 3% of the Moon is Illuminated
Aug 8
Waxing Crescent
Aug 14
First Quarter
Aug 20
Full
Aug 28
Last Quarter
Sep 5
New

Hourly Weather History & Observations

Time (PDT) Temp. Dew Point Humidity Pressure Visibility Wind Dir Wind Speed Gust Speed Precip Events Conditions
12:53 AM 82.0 °F 44.1 °F 26% 29.79 in 10.0 mi WNW 6.9 mph - N/A   Clear
1:53 AM 81.0 °F 44.1 °F 27% 29.78 in 10.0 mi WSW 9.2 mph - N/A   Clear
2:53 AM 79.0 °F 43.0 °F 28% 29.78 in 10.0 mi WNW 3.5 mph - N/A   Clear
3:53 AM 80.1 °F 39.9 °F 24% 29.78 in 10.0 mi WNW 3.5 mph - N/A   Clear
4:53 AM 80.1 °F 37.9 °F 22% 29.78 in 10.0 mi West 9.2 mph - N/A   Clear
5:53 AM 82.9 °F 34.0 °F 17% 29.80 in 10.0 mi West 4.6 mph - N/A   Clear
6:53 AM 80.1 °F 37.9 °F 22% 29.81 in 10.0 mi NW 3.5 mph - N/A   Clear
7:53 AM 84.0 °F 39.9 °F 21% 29.82 in 10.0 mi Calm Calm - N/A   Clear
8:53 AM 91.0 °F 45.0 °F 20% 29.83 in 10.0 mi West 5.8 mph - N/A   Clear
9:53 AM 96.1 °F 39.9 °F 14% 29.82 in 10.0 mi Variable 6.9 mph - N/A   Clear
10:53 AM 100.0 °F 28.9 °F 8% 29.81 in 10.0 mi NW 9.2 mph - N/A   Clear
11:53 AM 102.0 °F 27.0 °F 7% 29.80 in 10.0 mi NW 5.8 mph - N/A   Clear
12:53 PM 105.1 °F 25.0 °F 6% 29.78 in 10.0 mi Variable 4.6 mph - N/A   Clear
1:53 PM 106.0 °F 26.1 °F 6% 29.76 in 10.0 mi Calm Calm - N/A   Clear
2:53 PM 107.1 °F 23.0 °F 5% 29.73 in 10.0 mi SSW 4.6 mph - N/A   Clear
3:53 PM 108.0 °F 24.1 °F 5% 29.71 in 10.0 mi Calm Calm - N/A   Clear
4:53 PM 106.0 °F 36.0 °F 9% 29.70 in 10.0 mi West 12.7 mph - N/A   Clear
5:53 PM 102.0 °F 37.9 °F 11% 29.70 in 10.0 mi West 17.3 mph 23.0 mph N/A   Clear
6:53 PM 98.1 °F 37.0 °F 12% 29.70 in 10.0 mi WSW 15.0 mph - N/A   Clear
7:53 PM 95.0 °F 32.0 °F 11% 29.71 in 10.0 mi NNW 6.9 mph - N/A   Clear
8:53 PM 86.0 °F 37.9 °F 18% 29.73 in 10.0 mi WSW 10.4 mph - N/A   Clear
9:53 PM 84.9 °F 37.0 °F 18% 29.74 in 10.0 mi West 9.2 mph - N/A   Clear
10:53 PM 84.9 °F 36.0 °F 17% 29.75 in 10.0 mi WNW 4.6 mph - N/A   Clear
11:53 PM 80.1 °F 36.0 °F 20% 29.75 in 10.0 mi West 9.2 mph - N/A   Clear